Miscellaneous Local Product
Issued by NWS Hastings, NE

Home | Current Version | Previous Version | Graphics & Text | Print | Product List | Glossary On
Versions: 1 2 3 4 5 6 7 8 9 10 11 12 13 14 15 16 17 18 19 20 21 22 23 24 25 26 27 28 29 30 31 32 33 34 35 36 37 38 39 40 41 42 43 44 45 46 47 48 49 50
000
AXUS43 KGID 250402
MISGRI

GID CWA HOURLY WEATHER ROUNDUP
NATIONAL WEATHER SERVICE HASTINGS NE
1100 PM CDT MON APR 24 2017

NOTE: "FAIR" INDICATES FEW OR NO CLOUDS BELOW 12,000 FEET WITH NO
SIGNIFICANT WEATHER AND/OR OBSTRUCTIONS TO VISIBILITY.

...SOUTH CENTRAL NEBRASKA...

CITY           SKY/WX    TMP DP  RH WIND       PRES   REMARKS
GRAND ISLAND   CLOUDY    55  44  66 N14       29.57S
HASTINGS       MOCLDY    59  42  53 N16G23    29.54F
KEARNEY        CLOUDY    55  39  54 N15       29.56R
ORD            PTCLDY    50  40  68 N7        29.58S
YORK           MOCLDY    57  45  62 N13       29.55F
AURORA         CLOUDY    58  44  58 N12       29.56F
LEXINGTON      CLOUDY    57  41  55 NE13      29.55R
HOLDREGE       CLOUDY    57  40  52 NE10      29.54F
HEBRON         PTCLDY    63  41  45 N7G17     29.51F

...NEBRASKA PANHANDLE...

CITY           SKY/WX    TMP DP  RH WIND       PRES   REMARKS
CHADRON        CLOUDY    50  46  86 E8        29.59F
ALLIANCE       LGT RAIN  50  44  80 NE6       29.60R
SCOTTSBLUFF    LGT RAIN  51  46  83 SE5       29.58F
SIDNEY         LGT RAIN  48  44  86 N8        29.62R

...WESTERN AND NORTH CENTRAL NEBRASKA...

CITY           SKY/WX    TMP DP  RH WIND       PRES   REMARKS
VALENTINE      PTCLDY    46  38  73 NE8       29.62S
AINSWORTH      CLEAR     42  40  91 NE9       29.61F
ONEILL         PTCLDY    45  38  77 N3        29.62S
BROKEN BOW     MOCLDY    49  39  68 NE6       29.58F
IMPERIAL       CLOUDY    54  44  69 N8        29.56S
NORTH PLATTE   CLOUDY    54  41  61 NE15      29.56F
MCCOOK         PTCLDY    56  43  61 NE8       29.53R

...EASTERN NEBRASKA...

CITY           SKY/WX    TMP DP  RH WIND       PRES   REMARKS
NORFOLK        PTCLDY    49  39  68 NW12      29.57S
SO SIOUX CITY  CLEAR     54  43  66 NW13      29.54R
TEKAMAH        CLOUDY    61  45  55 NW15      29.53R
COLUMBUS       CLEAR     55  41  58 N13       29.57R
ALBION         CLEAR     50  40  70 NW9       29.58S
OMAHA EPPLEY   CLOUDY    62  44  51 S9        29.52F
OFFUTT AFB     PTCLDY    64  43  46 S10       29.53S
MILLARD        PTCLDY    64  47  54 SE5       29.53S
LINCOLN        CLEAR     62  48  60 NW7       29.53R
NEBRASKA CITY  CLEAR     61  39  43 S10       29.54F
BEATRICE       CLOUDY    64  49  59 S12       29.51S
FALLS CITY     CLEAR     57  45  64 SE8       29.55S

...NORTHERN KANSAS...

CITY           SKY/WX    TMP DP  RH WIND       PRES   REMARKS
GOODLAND       CLOUDY    55  43  63 E8        29.51S
HILL CITY      CLOUDY    61  46  57 E9        29.51F
NORTON         CLEAR     57  39  51 NE10      29.52R
PHILLIPSBURG   CLEAR     57  45  62 NE8       29.51F
SMITH CENTER   CLEAR     59  45  58 E8        29.54R
HAYS           CLOUDY    63  52  67 SE6       29.51R
RUSSELL        CLOUDY    64  51  62 SE13      29.49S
CONCORDIA      PTCLDY    60  53  77 SW6       29.54R
SALINA         CLOUDY    65  52  62 S10       29.52S
TOPEKA         PTCLDY    64  47  53 S10       29.56F



USA.gov is the U.S. government's official web portal to all federal, state and local government web resources and services.